This is the latest recevied weather packets stored in our database for station/object N6RDS. If no packets are shown the sender has not sent any weather packets the latest 10 day(s).
| Time | Temp. | Humidity | Pressure | Rain* | Wind** | Luminosity | Snow |
|---|---|---|---|---|---|---|---|
| 1777285372 | -0.56° C | 89% | 1019.7 hPa | 0 mm | - | 0 W/m² | - |
| 1777285068 | -0.56° C | 88% | 1019.9 hPa | 0 mm | - | 0 W/m² | - |
| 1777284765 | -0.56° C | 87% | 1019.7 hPa | 0 mm | - | 0 W/m² | - |
| 1777284462 | 0° C | 87% | 1019.7 hPa | 0 mm | - | 0 W/m² | - |
| 1777284159 | 0.56° C | 86% | 1019.7 hPa | 0 mm | - | 0 W/m² | - |
| 1777283857 | 0.56° C | 85% | 1019.7 hPa | 0 mm | - | 0 W/m² | - |
| 1777283553 | 1.11° C | 84% | 1019.6 hPa | 0 mm | - | 0 W/m² | - |
| 1777283253 | 1.11° C | 84% | 1019.4 hPa | 0 mm | - | 0 W/m² | - |
| 1777282950 | 1.11° C | 84% | 1019.5 hPa | 0 mm | - | 0 W/m² | - |
| 1777282650 | 1.67° C | 83% | 1019.7 hPa | 0 mm | - | 0 W/m² | - |
| 1777282346 | 1.67° C | 83% | 1019.5 hPa | 0 mm | - | 0 W/m² | - |
| 1777282045 | 1.67° C | 82% | 1019.5 hPa | 0 mm | - | 0 W/m² | - |
| 1777281742 | 1.67° C | 81% | 1019.7 hPa | 0 mm | - | 0 W/m² | - |
| 1777281439 | 1.67° C | 82% | 1019.5 hPa | 0 mm | - | 0 W/m² | - |
| 1777281135 | 2.22° C | 80% | 1019.7 hPa | 0 mm | - | 0 W/m² | - |
| 1777280832 | 2.22° C | 80% | 1019.6 hPa | 0 mm | - | 0 W/m² | - |
| 1777280529 | 2.22° C | 80% | 1019.7 hPa | 0 mm | - | 0 W/m² | - |
| 1777280226 | 2.78° C | 79% | 1019.6 hPa | 0 mm | - | 0 W/m² | - |
| 1777279922 | 2.78° C | 78% | 1019.9 hPa | 0 mm | - | 0 W/m² | - |
| 1777279620 | 2.78° C | 79% | 1019.9 hPa | 0 mm | - | 0 W/m² | - |
| 1777279316 | 2.78° C | 78% | 1019.7 hPa | 0 mm | - | 0 W/m² | - |
| 1777279014 | 2.78° C | 78% | 1019.9 hPa | 0 mm | - | 0 W/m² | - |
| 1777278710 | 3.33° C | 78% | 1020 hPa | 0 mm | - | 0 W/m² | - |
| 1777278406 | 3.33° C | 77% | 1020.1 hPa | 0 mm | - | 0 W/m² | - |
| 1777278103 | 3.89° C | 76% | 1020.2 hPa | 0 mm | - | 0 W/m² | - |
* Rain latest hour (hover to see other rain measurements)
** Current wind speed in m/s (hover to see current wind gust speed)